144P/Kushida (2024)

Japanese version
Home page
Updated on July 27, 2024

---------------------------------------------------------------------

* Profile

* Pictures

* Orbital Elements

Epoch 2024 Mar. 31.0 TT = JDT 2460400.5
T 2024 Jan. 25.77101 TT                                 Rudenko
q   1.3988578            (2000.0)            P               Q
n   0.13143719     Peri.  216.32175     -0.15945390     -0.98531547
a   3.8311034      Node   242.92551     +0.92113234     -0.12625072
e   0.6348682      Incl.    3.93189     +0.35509108     -0.11495295
P   7.50
>From 2684 observations 2016 July 31-2024 Mar. 15, mean residual 0".5.
     Nongravitational parameters A1 = +0.17, A2 = -0.0879.

* Finding Charts

* Magnitudes Graph

        m1 = 5.0 + 5 log d + 35 log r(t - 30)  [  ,30]  (             - 2024 Feb. 24)
        m1 = 6.5 + 5 log d + 25 log r(t - 30)  [30,  ]  (2024 Feb. 24 -             )

---------------------------------------------------------------------

The orbital elements are published on M.P.E.C. 2024-F34.
The charts are made with StellaNavigator Ver.10 (AstroArts).
The magnitudes graphs are made with Comet for Windows.

---------------------------------------------------------------------

Copyright(C) Seiichi Yoshida (comet@aerith.net). All rights reserved.